Flag for Antigua and Barbuda Weather past 2 weeks in Saint John's, Antigua and Barbuda

Now
82 °F

Scattered clouds.


Feels Like: 88 °F
Forecast: N/A
Wind: 7 mph from Southeast

Location: Vc Bird International Antigua Airport

Current Time: Sep 19, 2014 at 6:33:04 PM

Latest Report: Sep 19, 2014 at 6:00 PM


Visibility: N/A

Pressure: 29.95 "Hg

Humidity: 74%

Dew point: 73 °F

Location of Saint John'sLocation

Historic Weather in Saint John's — Graph

°F

Saint John's temperature yesterday

Maximum temperature yesterday: 88 °F (at 12:00 PM)
Minimum temperature yesterday: 81 °F (at 3:00 AM)
Average temperature yesterday: 84 °F

Past Weeks' High & Low Weather Summary

 TemperatureHumidityPressure
High88 °F (Sep 8, 2:00 PM)94% (Sep 7, 9:00 PM)30.07 "Hg (Sep 7, 9:00 PM)
Low77 °F (Sep 6, 7:00 PM)59% (Sep 15, 11:00 AM)29.89 "Hg (Sep 11, 4:00 PM)
Average83 °F75%29.97 "Hg
* Reported Sep 4 5:00 PM — Sep 19 5:00 PM, Saint John's, Weather by CustomWeather, © 2014

Note: Actual official high and low records may vary slightly from our data, if they occured in-between our weather recording intervals... More about our weather records

Advertising

Saint John's weather history for previous 24 hours

 ConditionsComfort  
Time TempWeatherWind HumidityBarometerVisibility
5:00 PM
Sep 19
84 °FWarm.8 mph66%29.92 "HgN/A
4:00 PM86 °FPassing clouds.8 mph62%29.92 "HgN/A
3:00 PM86 °FPartly sunny.7 mph59%29.92 "HgN/A
2:00 PM84 °FScattered clouds.8 mph70%29.92 "HgN/A
1:00 PM86 °FScattered clouds.7 mph70%29.95 "HgN/A
12:00 PM84 °FScattered clouds.9 mph74%29.95 "HgN/A
11:00 AM82 °FScattered clouds.7 mph79%29.98 "HgN/A
10:00 AM86 °FScattered clouds.9 mph66%29.98 "HgN/A
9:00 AM84 °FPassing clouds.8 mph74%29.98 "HgN/A
8:00 AM82 °FPassing clouds.7 mph74%29.98 "HgN/A
7:00 AM82 °FPassing clouds.9 mph79%29.95 "HgN/A
6:00 AM82 °FSprinkles. Scattered clouds.9 mph79%29.95 "HgN/A
5:00 AM82 °FPassing clouds.10 mph79%29.92 "HgN/A
4:00 AM82 °FPassing clouds.8 mph74%29.92 "HgN/A
3:00 AM82 °FPassing clouds.9 mph79%29.92 "HgN/A
2:00 AM82 °FPassing clouds.8 mph79%29.92 "HgN/A
1:00 AM81 °FPassing clouds.10 mph79%29.95 "HgN/A
12:00 AM82 °FPassing clouds.9 mph84%29.95 "HgN/A
11:00 PM
Sep 18
82 °FPassing clouds.9 mph79%29.98 "HgN/A
10:00 PM82 °FPassing clouds.8 mph79%29.98 "HgN/A
9:00 PM82 °FPassing clouds.9 mph79%29.98 "HgN/A
8:00 PM81 °FSprinkles. Passing clouds.6 mph84%29.95 "HgN/A
7:00 PM82 °FPassing clouds.7 mph84%29.92 "HgN/A
6:00 PM82 °FScattered clouds.7 mph84%29.92 "HgN/A
Weather by CustomWeather, © 2014

See weather overviewHow to use our weather pages